Regional Weather Roundup
Issued by NWS Sioux Falls, SD

Home | Current Version | Previous Version | Graphics & Text | Print | Product List | Glossary On
Versions: 1 2 3 4 5 6 7 8 9 10 11 12 13 14 15 16 17 18 19 20 21 22 23 24 25 26 27 28 29 30 31 32 33 34 35 36 37 38 39 40 41 42 43 44 45 46 47 48 49 50
000
ASUS43 KFSD 202002
RWRFSD

WEATHER ROUNDUP FOR SE SOUTH DAKOTA/SW MINNESOTA/NW IOWA
NATIONAL WEATHER SERVICE SIOUX FALLS SD
200 PM CST FRI JAN 20 2017

NOTE: "FAIR" INDICATES FEW OR NO CLOUDS BELOW 12,000 FEET WITH NO
SIGNIFICANT WEATHER AND OR OBSTRUCTIONS TO VISIBILITY.


SDZ038>040-050-052>070-202100-
SOUTHEAST SOUTH DAKOTA

CITY           SKY/WX    TMP DP  RH WIND       PRES   REMARKS
BROOKINGS      CLOUDY    37  36  96 SE16      29.38F FOG
CHAMBERLAIN    SUNNY     40  33  74 SW6       29.32F
HURON          PTSUNNY   41  35  79 S12       29.34F
MADISON        CLOUDY    37  37 100 S16G25      N/A
MITCHELL       SUNNY     46  37  71 S20G25    29.36F
SIOUX FALLS    CLOUDY    40  40 100 S13       29.42F FOG
WINNER         FAIR      44  29  55 SW12      29.32F
YANKTON        PTSUNNY   46  39  76 S20G25    29.40F
$$

MNZ071-072-080-081-089-090-097-098-202100-
SOUTHWEST MINNESOTA

CITY           SKY/WX    TMP DP  RH WIND       PRES   REMARKS
FAIRMONT       CLOUDY    36  35  96 S10       29.52R FOG
JACKSON        FOG       34  34 100 S9        29.50R VSB 1/4 WCI  26
LUVERNE        CLOUDY    37  36  93 S9        29.44F FOG
MARSHALL       CLOUDY    39  38  96 SE12      29.45F
MONTEVIDEO     CLOUDY    36  36 100 SE8       29.48F FOG
PIPESTONE      FOG       37  37 100 S13       29.41F VSB<1/4
REDWOOD FALLS  CLOUDY    36  34  92 SE9       29.48F
TRACY          CLOUDY    39  39  99 S8        29.45F FOG
WINDOM         FOG       37  37 100 SE9       29.47F VSB 1/2
WORTHINGTON    CLOUDY    37  37 100 SE13      29.46F FOG
$$

IAZ001>003-012>014-020>022-031-032-NEZ013-014-SDZ071-202100-
NORTHWEST IOWA

CITY           SKY/WX    TMP DP  RH WIND       PRES   REMARKS
CHEROKEE       CLOUDY    39  39 100 SE9       29.48F FOG
DENISON        CLOUDY    41  41 100 SE9G15    29.46F FOG
ESTHERVILLE    FOG       35  35 100 S9        29.50S VSB 1/4 WCI  28
LE MARS        CLOUDY    43  41  93 SE9       29.46F FOG
ORANGE CITY    CLOUDY    39  39 100 SE7       29.46S FOG
SHELDON        PTSUNNY   39  39 100 SE13      29.45S FOG
SIOUX CITY     CLOUDY    42  41  96 S9        29.46F FOG
SPENCER        FOG       39  39 100 SE10      29.49F VSB 1/4
STORM LAKE     FOG       39  37  93 SE12      29.48F VSB 1/4
$$

ABBREVIATIONS USED IN REMARKS
   TC - TEMPERATURE IN CELSIUS
  WCI - WIND CHILL INDEX
   HX - HEAT INDEX
  VSB - VISIBILITY




USA.gov is the U.S. government's official web portal to all federal, state and local government web resources and services.